Location: Fort Wayne
(41.1310°N, 85.1290°W)
Time: 02:19:17
(UTC-05:00)

Vanguard 3 - Visible Passes

Search period start: 02 March 2015 00:00
Search period end: 12 March 2015 01:00
Orbit: 510 x 3273 km, 33.3° (Epoch: 28 February)

Date Brightness Start Highest point End Pass type
(mag) Time Alt. Az. Time Alt. Az. Time Alt. Az.
06 Mar 10.2 05:34:52 10° S 05:39:24 14° SSE 05:43:11 10° SE visible
07 Mar 10.7 04:25:15 10° SSE 04:26:21 10° SSE 04:27:53 10° SE visible
07 Mar 9.5 06:32:23 10° SW 06:39:21 24° SSE 06:44:07 10° ESE visible
08 Mar 10.0 06:19:19 10° SSW 06:26:37 20° SSE 06:31:56 10° ESE visible
09 Mar 10.5 05:07:55 11° S 05:13:27 16° SSE 05:18:47 10° ESE visible
09 Mar 9.4 07:17:57 10° SW 07:26:36 31° SSE 07:32:05 10° ESE visible
10 Mar 10.9 03:59:51 11° SSE 03:59:53 11° SSE 04:02:27 10° SE visible
10 Mar 9.8 06:04:34 11° SSW 06:13:44 26° SSE 06:20:07 10° ESE visible
11 Mar 10.3 04:56:23 18° S 05:00:27 21° SSE 05:07:27 10° ESE visible
11 Mar 9.2 07:03:34 10° SW 07:13:45 37° S 07:19:53 10° ESE visible
